Bennington, VT

12:54 AM EST on December 15, 2017 (GMT -0500)
Morse State

Weather History for KDDH - February, 2013

Change the Weather History Date:

Wednesday, February 27, 2013

  Actual Average Record
Temperature  
Mean Temperature 37 °F 28 °F  
Max Temperature 42 °F 38 °F 51 °F (2017)
Min Temperature 32 °F 18 °F 0 °F (2015)
Degree Days  
Heating Degree Days 28 37  
Month to date heating degree days 1069 1083  
Since 1 July heating degree days 4757 5214  
Cooling Degree Days 0 0  
Month to date cooling degree days 0 0  
Year to date cooling degree days 0 0  
Moisture  
Dew Point 29 °F    
Average Humidity 69    
Maximum Humidity 82    
Minimum Humidity 56    
Precipitation  
Precipitation 0.31 in 0.09 in 0.00 in (2017)
Month to date precipitation 1.18 2.14  
Year to date precipitation 2.63 4.89  
Sea Level Pressure  
Sea Level Pressure 29.74 in    
Wind  
Wind Speed 14 mph (ESE)    
Max Wind Speed 33 mph    
Max Gust Speed 49 mph    
Visibility 6 miles    
Events Fog , Rain , Snow    
T = Trace of Precipitation, MM = Missing Value Source: NWS Daily Summary

Daily Weather History Graph

Daily Weather History Graph

Search for Another Location

Airport or City:

Trip Planner

Search our weather history database for the weather conditions in past years. The results will help you decide how hot, cold, wet, or windy it might be!

Date:

Astronomy

Feb. 27, 2013 Rise Set
Actual Time 6:31 AM EST 5:40 PM EST
Civil Twilight 6:03 AM EST 6:08 PM EST
Nautical Twilight 5:30 AM EST 6:41 PM EST
Astronomical Twilight 4:57 AM EST 7:14 PM EST
Moon 8:03 PM EST (2/27) 7:01 AM EST (2/27)
Length of Visible Light 12h 05m
Length of Day
11h 08m
Waning Gibbous, 96% of the Moon is Illuminated
Feb 27
Waning Gibbous
Mar 4
Last Quarter
Mar 11
New
Mar 19
First Quarter
Mar 27
Full

Hourly Weather History & Observations

Time (EST) Temp. Windchill Dew Point Humidity Pressure Visibility Wind Dir Wind Speed Gust Speed Precip Events Conditions
12:54 AM 35.1 °F 25.9 °F 24.1 °F 64% 30.02 in 10.0 mi ESE 13.8 mph 32.2 mph N/A   Mostly Cloudy
1:54 AM 35.1 °F 27.4 °F 23.0 °F 61% 30.03 in 10.0 mi East 10.4 mph 18.4 mph 0.00 in   Overcast
2:33 AM 33.8 °F 25.3 °F 26.6 °F 75% 30.00 in 2.5 mi East 11.5 mph 20.7 mph 0.00 in Snow Light Snow
2:39 AM 32.0 °F 23.6 °F 26.6 °F 80% 30.00 in 0.8 mi East 10.4 mph 18.4 mph 0.01 in Snow Light Snow
2:50 AM 32.0 °F 24.8 °F 28.4 °F 87% 29.99 in 0.8 mi East 8.1 mph 17.3 mph 0.02 in Snow Light Snow
2:54 AM 33.1 °F 26.1 °F 28.0 °F 82% 30.01 in 1.2 mi ENE 8.1 mph 19.6 mph 0.02 in Snow Light Snow
3:13 AM 32.0 °F 26.4 °F 28.4 °F 87% 29.95 in 0.5 mi Variable 5.8 mph 19.6 mph 0.03 in Fog , Snow Light Snow
3:25 AM 33.8 °F 30.8 °F 28.4 °F 81% 29.94 in 1.0 mi SE 3.5 mph - 0.04 in Snow Light Snow
3:33 AM 33.8 °F 28.6 °F 28.4 °F 81% 29.93 in 1.2 mi Variable 5.8 mph 17.3 mph 0.04 in Snow Light Snow
3:54 AM 33.1 °F 24.9 °F 28.9 °F 85% 29.95 in 1.2 mi ESE 10.4 mph 18.4 mph 0.05 in Snow Light Snow
4:02 AM 33.8 °F 26.4 °F 28.4 °F 81% 29.92 in 1.5 mi East 9.2 mph 27.6 mph 0.00 in Snow Light Snow
4:13 AM 33.8 °F 25.3 °F 28.4 °F 81% 29.91 in 2.0 mi East 11.5 mph 26.5 mph 0.01 in Snow Light Snow
4:25 AM 33.8 °F 25.3 °F 28.4 °F 81% 29.91 in 4.0 mi East 11.5 mph 21.9 mph 0.01 in Snow Light Snow
4:33 AM 35.6 °F 28.6 °F 26.6 °F 70% 29.90 in 7.0 mi East 9.2 mph 26.5 mph 0.01 in Snow Light Snow
4:54 AM 35.1 °F 26.4 °F 27.0 °F 72% 29.90 in 3.0 mi ESE 12.7 mph 26.5 mph 0.01 in Snow Light Snow
5:03 AM 35.6 °F 25.9 °F 28.4 °F 75% 29.87 in 2.0 mi ESE 16.1 mph 28.8 mph 0.00 in Snow Light Snow
5:21 AM 35.6 °F 25.2 °F 26.6 °F 70% 29.87 in 4.0 mi East 18.4 mph 32.2 mph 0.00 in Snow Light Snow
5:54 AM 36.0 °F 25.0 °F 28.0 °F 73% 29.85 in 6.0 mi ESE 20.7 mph 35.7 mph 0.01 in Snow Light Snow
6:54 AM 37.9 °F 27.1 °F 28.0 °F 68% 29.81 in 10.0 mi ESE 23.0 mph 42.6 mph 0.00 in   Overcast
7:54 AM 37.0 °F 25.9 °F 30.0 °F 76% 29.78 in 5.0 mi East 23.0 mph 41.4 mph 0.02 in   Overcast
8:54 AM 39.0 °F 31.0 °F 30.9 °F 73% 29.77 in 5.0 mi East 13.8 mph 36.8 mph 0.04 in Rain Light Rain
10:54 AM 39.0 °F 34.0 °F 33.1 °F 79% 29.70 in 8.0 mi Variable 6.9 mph 16.1 mph 0.04 in Rain Light Rain
11:54 AM 39.9 °F 31.4 °F 32.0 °F 73% 29.65 in 4.0 mi ESE 16.1 mph 29.9 mph 0.03 in Rain Light Rain
12:33 PM 39.2 °F 29.8 °F 32.0 °F 75% 29.61 in 2.5 mi SE 18.4 mph 39.1 mph 0.03 in Rain Rain
12:41 PM 39.2 °F 30.8 °F 33.8 °F 81% 29.60 in 2.5 mi SE 15.0 mph 39.1 mph 0.04 in Rain Light Rain
12:49 PM 39.2 °F 29.8 °F 33.8 °F 81% 29.60 in 6.0 mi SE 18.4 mph 39.1 mph 0.04 in Rain Light Rain
12:54 PM 39.9 °F 31.8 °F 33.1 °F 77% 29.61 in 9.0 mi SE 15.0 mph 31.1 mph 0.04 in Rain Light Rain
1:02 PM 41.0 °F 31.9 °F 33.8 °F 76% 29.59 in 9.0 mi ESE 19.6 mph 31.1 mph 0.00 in   Overcast
1:23 PM 42.8 °F 34.0 °F 33.8 °F 70% 29.60 in 10.0 mi SSE 20.7 mph 34.5 mph 0.00 in   Overcast
1:54 PM 41.0 °F 32.5 °F 32.0 °F 70% 29.60 in 8.0 mi SSE 17.3 mph 41.4 mph 0.00 in   Overcast
2:54 PM 39.0 °F 30.3 °F 32.0 °F 76% 29.59 in 5.0 mi SE 16.1 mph 32.2 mph 0.01 in Rain Light Rain
3:02 PM 39.2 °F 29.6 °F 32.0 °F 75% 29.57 in 6.0 mi SSE 19.6 mph 34.5 mph 0.00 in Rain Light Rain
3:43 PM 39.2 °F 28.7 °F 30.2 °F 70% 29.57 in 10.0 mi SSE 23.0 mph 49.5 mph 0.01 in   Overcast
3:54 PM 39.0 °F 28.8 °F 30.9 °F 73% 29.60 in 10.0 mi SE 21.9 mph 36.8 mph 0.01 in   Overcast
4:25 PM 37.4 °F 32.8 °F 30.2 °F 75% 29.57 in 6.0 mi Variable 5.8 mph 23.0 mph N/A   Haze
4:54 PM 37.9 °F 28.9 °F 30.9 °F 76% 29.57 in 10.0 mi SSE 16.1 mph 24.2 mph N/A   Overcast
5:21 PM 37.4 °F 29.8 °F 30.2 °F 75% 29.57 in 10.0 mi South 11.5 mph 27.6 mph N/A   Overcast
5:29 PM 37.4 °F 28.2 °F 30.2 °F 75% 29.58 in 10.0 mi SSE 16.1 mph 26.5 mph N/A   Overcast
5:47 PM 37.4 °F 27.8 °F 30.2 °F 75% 29.57 in 10.0 mi SE 17.3 mph 25.3 mph N/A   Overcast
5:54 PM 37.0 °F 28.5 °F 28.9 °F 73% 29.58 in 10.0 mi SSE 13.8 mph 25.3 mph N/A   Overcast
6:33 PM 37.4 °F 27.5 °F 30.2 °F 75% 29.55 in 10.0 mi SSE 18.4 mph 33.4 mph N/A   Overcast
6:54 PM 37.0 °F 29.8 °F 30.0 °F 76% 29.58 in 10.0 mi SSE 10.4 mph 28.8 mph N/A   Overcast
7:42 PM 37.4 °F 26.1 °F 28.4 °F 70% 29.56 in 10.0 mi East 24.2 mph 39.1 mph N/A   Overcast
7:54 PM 37.0 °F 26.7 °F 28.9 °F 73% 29.58 in 10.0 mi ESE 19.6 mph 36.8 mph N/A   Overcast
9:54 PM 37.0 °F 29.8 °F 27.0 °F 67% 29.60 in 10.0 mi East 10.4 mph - N/A   Overcast
10:54 PM 37.0 °F 31.0 °F 27.0 °F 67% 29.61 in 10.0 mi ESE 8.1 mph 18.4 mph N/A   Overcast
11:54 PM 36.0 °F 31.1 °F 27.0 °F 70% 29.61 in 10.0 mi SE 5.8 mph - N/A   Overcast